FW9050 Weather Reports


time (UTC)temp
C
wind
direction
speed
KPH
gust
KPH
rain 1hr
cm
rain 24hr
cm
rain mn
cm
humidity
%
barometer
mb
20260504214048 23 153 4.8 14.5 0.00 0.00 0.00 38 1009.8
20260504213549 23 158 4.8 14.5 0.00 0.00 0.00 39 1009.8
20260504213058 23 214 3.2 14.5 0.00 0.00 0.00 37 1009.9
20260504212548 23 229 4.8 14.5 0.00 0.00 0.00 37 1010.0
20260504212049 23 122 4.8 8.0 0.00 0.00 0.00 37 1009.9
20260504211554 23 102 4.8 12.9 0.00 0.00 0.00 37 1009.9
20260504211048 23 210 3.2 12.9 0.00 0.00 0.00 40 1010.0
20260504210548 23 128 3.2 9.7 0.00 0.00 0.00 40 1009.9
20260504205549 23 226 3.2 11.3 0.00 0.00 0.00 38 1009.9
20260504205051 23 101 4.8 17.7 0.00 0.00 0.00 36 1009.9
20260504204608 23 160 6.4 17.7 0.00 0.00 0.00 38 1010.1
20260504204048 23 276 4.8 12.9 0.00 0.00 0.00 38 1009.9
20260504203548 23 284 4.8 9.7 0.00 0.00 0.00 36 1010.0
20260504203111 23 158 3.2 12.9 0.00 0.00 0.00 38 1010.0
20260504202550 23 163 3.2 12.9 0.00 0.00 0.00 41 1010.0
20260504202051 23 166 4.8 12.9 0.00 0.00 0.00 39 1010.1
20260504201551 23 313 1.6 14.5 0.00 0.00 0.00 39 1010.3
20260504201048 23 144 8.0 14.5 0.00 0.00 0.00 37 1010.4
20260504200548 23 181 4.8 14.5 0.00 0.00 0.00 38 1010.3
20260504200054 23 255 3.2 12.9 0.00 0.00 0.00 38 1010.4
20260504195548 23 268 4.8 12.9 0.00 0.00 0.00 39 1010.6
20260504195048 23 241 6.4 12.9 0.00 0.00 0.00 37 1010.6
20260504194553 23 122 4.8 14.5 0.00 0.00 0.00 38 1010.6
20260504194051 23 259 6.4 16.1 0.00 0.00 0.00 36 1010.8
20260504193548 24 205 8.0 16.1 0.00 0.00 0.00 36 1010.9
20260504193054 24 190 4.8 11.3 0.00 0.00 0.00 37 1010.9
20260504192547 25 113 4.8 11.3 0.00 0.00 0.00 35 1011.0
20260504192050 24 141 4.8 11.3 0.00 0.00 0.00 38 1011.2
20260504191600 23 150 3.2 11.3 0.00 0.00 0.00 41 1011.2
20260504191050 23 205 3.2 19.3 0.00 0.00 0.00 38 1011.4
20260504190548 23 153 8.0 19.3 0.00 0.00 0.00 37 1011.4
20260504190055 24 258 4.8 17.7 0.00 0.00 0.00 37 1011.4
20260504185548 24 259 1.6 9.7 0.00 0.00 0.00 40 1011.7
20260504185048 24 271 4.8 9.7 0.00 0.00 0.00 37 1011.7
20260504184556 24 271 3.2 9.7 0.00 0.00 0.00 38 1011.8
20260504184048 23 149 3.2 16.1 0.00 0.00 0.00 36 1011.8
20260504183548 23 170 6.4 16.1 0.00 0.00 0.00 38 1012.0
20260504183100 23 118 8.0 17.7 0.00 0.00 0.00 38 1012.0
20260504182549 23 217 4.8 17.7 0.00 0.00 0.00 37 1012.1
20260504182047 23 233 4.8 17.7 0.00 0.00 0.00 35 1012.2
20260504181551 23 228 4.8 14.5 0.00 0.00 0.00 39 1012.3
20260504181051 23 185 3.2 14.5 0.00 0.00 0.00 37 1012.1
20260504180552 23 86 3.2 14.5 0.00 0.00 0.00 38 1012.2
20260504180109 22 140 3.2 12.9 0.00 0.00 0.00 39 1012.3
20260504175548 23 138 4.8 16.1 0.00 0.00 0.00 36 1012.4
20260504175052 22 242 3.2 16.1 0.00 0.00 0.00 40 1012.5
20260504174551 22 231 4.8 12.9 0.00 0.00 0.00 38 1012.5
20260504174050 22 157 4.8 12.9 0.00 0.00 0.00 38 1012.7
20260504173548 22 212 3.2 12.9 0.00 0.00 0.00 39 1012.7
20260504173105 22 122 4.8 12.9 0.00 0.00 0.00 37 1012.9
20260504172548 22 274 3.2 12.9 0.00 0.00 0.00 37 1012.7
20260504172047 22 255 4.8 12.9 0.00 0.00 0.00 38 1012.9
20260504171556 22 165 4.8 12.9 0.00 0.00 0.00 38 1012.8
20260504171049 22 209 4.8 11.3 0.00 0.00 0.00 39 1013.0
20260504170551 22 192 4.8 11.3 0.00 0.00 0.00 35 1012.9
20260504151048 19 139 3.2 12.9 0.00 0.00 0.00 41 1014.0
20260504150548 19 275 3.2 12.9 0.00 0.00 0.00 40 1014.2
20260504141048 18 254 1.6 8.0 0.00 0.00 0.00 43 1014.1
20260504140549 17 163 1.6 8.0 0.00 0.00 0.00 51 1014.2
20260504140110 17 215 3.2 8.0 0.00 0.00 0.00 51 1014.3
20260504130548 15 231 1.6 8.0 0.00 0.00 0.00 55 1014.5
20260504110551 8 201 1.6 3.2 0.00 0.00 0.00 68 1015.2
20260504100550 9 145 1.6 4.8 0.00 0.00 0.00 67 1014.9
20260504081557 10 0 0.0 1.6 0.00 0.00 0.00 61 1015.4
20260504081049 10 0 0.0 3.2 0.00 0.00 0.00 61 1015.4
20260504080554 9 149 0.0 3.2 0.00 0.00 0.00 59 1015.4
20260504050550 8 132 0.0 1.6 0.00 0.00 0.00 56 1015.9
20260504050106 8 149 0.0 1.6 0.00 0.00 0.00 55 1015.7
20260504045548 8 148 0.0 0.0 0.00 0.00 0.00 55 1015.7
20260504045051 9 0 0.0 3.2 0.00 0.00 0.00 54 1015.7
20260504044554 9 0 0.0 3.2 0.00 0.00 0.00 53 1015.7
20260504044048 9 0 1.6 3.2 0.00 0.00 0.00 53 1015.7
20260504043548 9 167 0.0 3.2 0.00 0.00 0.00 53 1015.7
20260504043058 9 0 0.0 3.2 0.00 0.00 0.00 53 1015.7
20260504042548 8 155 0.0 3.2 0.00 0.00 0.00 53 1015.8
20260504042050 8 172 0.0 3.2 0.00 0.00 0.00 54 1015.8
20260504041550 8 0 0.0 3.2 0.00 0.00 0.00 55 1015.7
20260504041050 8 186 0.0 1.6 0.00 0.00 0.00 54 1015.7
20260504040550 9 186 0.0 3.2 0.00 0.00 0.00 54 1015.7
20260504035551 9 231 0.0 3.2 0.00 0.00 0.00 54 1015.8
20260504035049 9 170 0.0 3.2 0.00 0.00 0.00 53 1015.7
20260504034611 9 143 1.6 3.2 0.00 0.00 0.00 53 1015.7
20260504034053 9 127 1.6 3.2 0.00 0.00 0.00 53 1015.7
20260504033550 9 160 0.0 3.2 0.00 0.00 0.00 53 1015.6
20260504033050 10 167 0.0 3.2 0.00 0.00 0.00 52 1015.5
20260504032551 10 151 0.0 3.2 0.00 0.00 0.00 51 1015.6
20260504032049 10 214 1.6 3.2 0.00 0.00 0.00 51 1015.5
20260504031555 9 150 1.6 3.2 0.00 0.00 0.00 52 1015.5
20260504031050 8 162 1.6 3.2 0.00 0.00 0.00 53 1015.4
20260504030554 8 201 0.0 1.6 0.00 0.00 0.00 55 1015.4
20260504030053 8 225 1.6 1.6 0.00 0.00 0.00 58 1015.4
20260504025550 8 213 0.0 1.6 0.00 0.00 0.00 59 1015.3
20260504025050 8 0 0.0 3.2 0.00 0.00 0.00 56 1015.2
20260504024554 8 213 0.0 3.2 0.00 0.00 0.00 54 1015.3
20260504024050 8 212 0.0 1.6 0.00 0.00 0.00 54 1015.4
20260504023548 8 229 0.0 1.6 0.00 0.00 0.00 56 1015.3
20260504023053 8 229 0.0 1.6 0.00 0.00 0.00 56 1015.3
20260504022548 8 229 0.0 1.6 0.00 0.00 0.00 56 1015.4
20260504022051 8 0 0.0 1.6 0.00 0.00 0.00 58 1015.3
20260504021553 9 229 0.0 1.6 0.00 0.00 0.00 55 1015.4
20260504021052 9 222 1.6 1.6 0.00 0.00 0.00 54 1015.4
20260504020554 9 222 0.0 1.6 0.00 0.00 0.00 55 1015.4
20260504020115 9 222 0.0 1.6 0.00 0.00 0.00 54 1015.3
20260504015552 9 0 0.0 1.6 0.00 0.00 0.00 54 1015.2
20260504015051 9 222 0.0 1.6 0.00 0.00 0.00 52 1015.1
20260504014601 9 0 0.0 1.6 0.00 0.00 0.00 52 1015.0
20260504014051 9 0 0.0 1.6 0.00 0.00 0.00 57 1015.1
20260504013548 9 212 0.0 1.6 0.00 0.00 0.00 56 1015.2
20260504013111 9 0 1.6 1.6 0.00 0.00 0.00 57 1015.1
20260504012549 9 212 0.0 1.6 0.00 0.00 0.00 55 1015.0
20260504012048 10 194 0.0 1.6 0.00 0.00 0.00 55 1015.0
20260504011554 10 194 0.0 1.6 0.00 0.00 0.00 52 1015.0
20260504011050 10 0 0.0 1.6 0.00 0.00 0.00 52 1015.0
20260504010550 10 192 0.0 1.6 0.00 0.00 0.00 50 1015.0
20260504010057 10 0 0.0 1.6 0.00 0.00 0.00 52 1015.0
20260504005549 10 0 0.0 0.0 0.00 0.00 0.00 54 1015.0
20260504005048 10 0 0.0 1.6 0.00 0.00 0.00 54 1014.9
20260504004552 10 0 0.0 1.6 0.00 0.00 0.00 51 1014.8
20260504004051 10 199 0.0 1.6 0.00 0.00 0.00 49 1014.8
20260504003550 10 0 0.0 1.6 0.00 0.00 0.00 49 1014.8
20260504003053 11 0 0.0 1.6 0.00 0.00 0.00 49 1014.8
20260504002550 11 0 0.0 1.6 0.00 0.00 0.00 49 1014.6
20260504002050 11 276 0.0 1.6 0.00 0.00 0.00 49 1014.6
20260504001556 11 276 0.0 1.6 0.00 0.00 0.00 50 1014.5
20260504001050 11 276 0.0 1.6 0.00 0.00 0.00 48 1014.5
20260504000549 12 276 0.0 1.6 0.00 0.00 0.00 46 1014.5
20260504000053 12 276 0.0 1.6 0.00 0.00 0.00 46 1014.5
20260503235551 12 0 0.0 1.6 0.00 0.00 0.00 44 1014.6
20260503235048 13 0 0.0 0.0 0.00 0.00 0.00 42 1014.5
20260503234555 13 0 0.0 1.6 0.00 0.00 0.00 41 1014.4
20260503234049 14 0 0.0 3.2 0.00 0.00 0.00 39 1014.4
20260503233550 15 278 1.6 4.8 0.00 0.00 0.00 38 1014.3
20260503233052 15 275 1.6 4.8 0.00 0.00 0.00 37 1014.2
20260503232550 16 297 1.6 4.8 0.00 0.00 0.00 35 1014.3
20260503232047 16 297 1.6 3.2 0.00 0.00 0.00 37 1014.2
20260503231552 16 291 1.6 6.4 0.00 0.00 0.00 36 1014.1
20260503231048 16 291 0.0 8.0 0.00 0.00 0.00 37 1014.1
20260503230552 16 274 1.6 8.0 0.00 0.00 0.00 35 1014.1
20260503230053 15 131 0.0 8.0 0.00 0.00 0.00 34 1014.1
20260503225548 15 0 1.6 6.4 0.00 0.00 0.00 38 1014.1
20260503225048 15 296 1.6 6.4 0.00 0.00 0.00 36 1014.2
20260503224601 15 286 3.2 8.0 0.00 0.00 0.00 36 1014.2
20260503224048 15 264 3.2 8.0 0.00 0.00 0.00 35 1014.2
20260503223601 15 309 3.2 12.9 0.00 0.00 0.00 35 1014.1
20260503223448 15 288 0.0 12.9 0.00 0.00 0.00 38 1014.2
20260503222053 15 238 3.2 6.4 0.00 0.00 0.00 36 1014.1
20260503221601 15 300 1.6 6.4 0.00 0.00 0.00 36 1014.1
20260503221053 15 308 1.6 8.0 0.00 0.00 0.00 37 1014.1
20260503220551 15 302 3.2 11.3 0.00 0.00 0.00 36 1014.0
20260503220054 15 311 3.2 12.9 0.00 0.00 0.00 36 1014.0
20260503215550 15 293 6.4 16.1 0.00 0.00 0.00 34 1014.2
20260503215051 16 300 6.4 17.7 0.00 0.00 0.00 35 1014.2
20260503214553 16 181 4.8 17.7 0.00 0.00 0.00 33 1014.2